�������l�o���
Date,Time,MP-1(��Sv/h),MP-2(��Sv/h),MP-3(��Sv/h),MP-4(��Sv/h),MP-5(��Sv/h),MP-6(��Sv/h),MP-7(��Sv/h),MP-8(��Sv/h),����,����(m/s),���J
2017/01/01,00:00,1.101,1.835,1.199,2.092,1.439,0.569,1.038,0.963,���k��,5.7,��
2017/01/01,00:10,1.102,1.836,1.200,2.093,1.440,0.568,1.040,0.963,���k��,6.0,��
2017/01/01,00:20,1.100,1.834,1.197,2.090,1.438,0.568,1.037,0.962,���k��,7.7,��
2017/01/01,00:30,1.100,1.833,1.198,2.093,1.439,0.569,1.039,0.964,���k��,7.4,��
2017/01/01,00:40,1.101,1.835,1.197,2.093,1.439,0.568,1.039,0.964,���k��,7.6,��
2017/01/01,00:50,1.101,1.833,1.199,2.090,1.440,0.566,1.041,0.963,���k��,7.1,��
2017/01/01,01:00,1.100,1.836,1.201,2.091,1.442,0.569,1.039,0.965,�k��,8.1,��
2017/01/01,01:10,1.105,1.833,1.201,2.095,1.438,0.569,1.039,0.962,�k��,9.2,��
2017/01/01,01:20,1.101,1.832,1.200,2.093,1.438,0.569,1.040,0.964,�k��,8.2,��
2017/01/01,01:30,1.101,1.834,1.200,2.091,1.440,0.568,1.039,0.963,�k��,8.7,��
2017/01/01,01:40,1.101,1.836,1.198,2.095,1.439,0.568,1.039,0.963,�k��,9.2,��
2017/01/01,01:50,1.103,1.833,1.200,2.092,1.437,0.568,1.040,0.962,�k��,8.2,��
2017/01/01,02:00,1.100,1.835,1.200,2.094,1.438,0.569,1.038,0.963,�k��,8.4,��
2017/01/01,02:10,1.102,1.832,1.198,2.093,1.441,0.568,1.037,0.963,�k��,9.0,��
2017/01/01,02:20,1.102,1.837,1.200,2.091,1.441,0.569,1.039,0.964,�k��,8.4,��
2017/01/01,02:30,1.101,1.834,1.201,2.097,1.442,0.568,1.037,0.964,���k��,8.4,��
2017/01/01,02:40,1.102,1.835,1.200,2.093,1.439,0.570,1.039,0.963,���k��,8.4,��
2017/01/01,02:50,1.103,1.835,1.201,2.092,1.438,0.570,1.040,0.962,���k��,7.9,��
2017/01/01,03:00,1.102,1.836,1.200,2.092,1.440,0.567,1.038,0.966,���k��,7.8,��
2017/01/01,03:10,1.104,1.833,1.199,2.091,1.441,0.569,1.041,0.964,�k��,7.0,��
2017/01/01,03:20,1.102,1.834,1.200,2.094,1.440,0.568,1.039,0.961,�k��,7.0,��
2017/01/01,03:30,1.102,1.835,1.200,2.091,1.441,0.569,1.038,0.963,�k��,6.5,��
2017/01/01,03:40,1.103,1.832,1.200,2.093,1.440,0.568,1.038,0.964,�k��,5.2,��
2017/01/01,03:50,1.102,1.835,1.197,2.094,1.438,0.569,1.040,0.961,���k��,5.2,��
2017/01/01,04:00,1.101,1.834,1.201,2.094,1.440,0.567,1.039,0.963,���k��,5.3,��
2017/01/01,04:10,1.103,1.835,1.201,2.094,1.441,0.571,1.039,0.961,���k��,5.0,��
2017/01/01,04:20,1.102,1.833,1.202,2.093,1.440,0.569,1.037,0.963,���k��,4.1,��
2017/01/01,04:30,1.102,1.834,1.200,2.094,1.441,0.568,1.039,0.963,��,3.3,��
2017/01/01,04:40,1.100,1.834,1.201,2.094,1.439,0.569,1.039,0.965,��,4.6,��
2017/01/01,04:50,1.100,1.834,1.200,2.092,1.440,0.568,1.039,0.964,��,5.4,��
2017/01/01,05:00,1.101,1.832,1.199,2.093,1.440,0.569,1.039,0.962,��,5.3,��
2017/01/01,05:10,1.104,1.834,1.201,2.093,1.440,0.569,1.038,0.961,���k��,5.4,��
2017/01/01,05:20,1.103,1.835,1.200,2.093,1.439,0.568,1.038,0.963,�k��,3.9,��
2017/01/01,05:30,1.101,1.831,1.200,2.095,1.440,0.568,1.038,0.961,���k��,2.9,��
2017/01/01,05:40,1.101,1.833,1.199,2.091,1.439,0.567,1.037,0.962,���k��,2.5,��
2017/01/01,05:50,1.100,1.834,1.199,2.092,1.436,0.567,1.038,0.963,���k��,2.8,��
2017/01/01,06:00,1.102,1.831,1.198,2.091,1.439,0.568,1.036,0.962,���k��,4.1,��
2017/01/01,06:10,1.102,1.833,1.201,2.090,1.440,0.568,1.035,0.963,���k��,3.5,��
2017/01/01,06:20,1.101,1.835,1.201,2.091,1.441,0.568,1.038,0.962,���k��,3.9,��
2017/01/01,06:30,1.099,1.834,1.199,2.089,1.440,0.568,1.039,0.962,�k��,2.8,��
2017/01/01,06:40,1.101,1.829,1.201,2.092,1.440,0.569,1.036,0.963,���k��,3.8,��
2017/01/01,06:50,1.101,1.834,1.202,2.094,1.438,0.569,1.037,0.962,���k��,3.0,��
2017/01/01,07:00,1.101,1.832,1.199,2.092,1.437,0.568,1.036,0.961,�k��,3.7,��
2017/01/01,07:10,1.100,1.833,1.198,2.088,1.438,0.568,1.037,0.963,�k��,3.0,��
2017/01/01,07:20,1.101,1.832,1.196,2.088,1.440,0.567,1.037,0.962,���k��,2.5,��
2017/01/01,07:30,1.100,1.833,1.199,2.093,1.440,0.569,1.038,0.961,�k��,3.7,��
2017/01/01,07:40,1.101,1.832,1.200,2.088,1.441,0.566,1.037,0.962,�k��,4.7,��
2017/01/01,07:50,1.101,1.834,1.201,2.091,1.441,0.569,1.036,0.962,�k��,5.3,��
2017/01/01,08:00,1.099,1.835,1.200,2.093,1.440,0.569,1.039,0.962,���k��,4.9,��
2017/01/01,08:10,1.101,1.836,1.202,2.092,1.439,0.567,1.040,0.962,���k��,4.2,��
2017/01/01,08:20,1.103,1.835,1.200,2.093,1.439,0.567,1.037,0.964,��,4.6,��
2017/01/01,08:30,1.101,1.835,1.200,2.090,1.441,0.569,1.039,0.965,��,4.8,��
2017/01/01,08:40,1.101,1.833,1.201,2.093,1.438,0.569,1.040,0.962,���k��,4.1,��
2017/01/01,08:50,1.100,1.836,1.200,2.091,1.443,0.568,1.039,0.963,���k��,3.7,��
2017/01/01,09:00,1.103,1.837,1.198,2.095,1.441,0.571,1.038,0.962,���k��,3.4,��
2017/01/01,09:10,1.104,1.837,1.202,2.096,1.443,0.569,1.039,0.963,���k��,3.4,��
2017/01/01,09:20,1.104,1.837,1.200,2.095,1.439,0.568,1.040,0.963,�k��,4.8,��
2017/01/01,09:30,1.104,1.838,1.200,2.095,1.442,0.571,1.038,0.964,�k��,6.6,��
2017/01/01,09:40,1.105,1.836,1.202,2.094,1.442,0.568,1.035,0.963,�k��,7.7,��
2017/01/01,09:50,1.106,1.838,1.201,2.096,1.443,0.568,1.036,0.963,���k��,7.0,��
2017/01/01,10:00,1.104,1.838,1.201,2.093,1.443,0.570,1.036,0.962,���k��,4.4,��
2017/01/01,10:10,1.106,1.838,1.200,2.094,1.442,0.569,1.036,0.962,���k��,5.0,��
2017/01/01,10:20,1.107,1.837,1.202,2.095,1.444,0.569,1.037,0.964,���k��,3.0,��
2017/01/01,10:30,1.106,1.836,1.203,2.099,1.444,0.571,1.037,0.963,���k��,5.8,��
2017/01/01,10:40,1.108,1.838,1.206,2.096,1.443,0.570,1.039,0.964,���k��,5.9,��
2017/01/01,10:50,1.105,1.841,1.202,2.096,1.446,0.571,1.038,0.962,���k��,3.8,��
2017/01/01,11:00,1.104,1.838,1.204,2.097,1.446,0.571,1.038,0.961,���k��,3.9,��
2017/01/01,11:10,1.104,1.833,1.203,2.097,1.444,0.569,1.040,0.963,���k��,3.9,��
2017/01/01,11:20,1.108,1.836,1.204,2.099,1.444,0.572,1.037,0.964,���k��,3.4,��
2017/01/01,11:30,1.106,1.835,1.202,2.097,1.444,0.571,1.039,0.963,�k��,5.7,��
2017/01/01,11:40,1.105,1.839,1.205,2.099,1.446,0.570,1.040,0.964,�k��,5.3,��
2017/01/01,11:50,1.107,1.836,1.205,2.099,1.444,0.570,1.039,0.964,�k��,3.8,��
2017/01/01,12:00,1.106,1.836,1.206,2.100,1.445,0.570,1.036,0.963,�k��,3.3,��
2017/01/01,12:10,1.106,1.837,1.207,2.101,1.442,0.569,1.038,0.967,�k�k��,3.7,��
2017/01/01,12:20,1.110,1.837,1.204,2.098,1.441,0.570,1.038,0.966,�k�k��,3.7,��
2017/01/01,12:30,1.107,1.838,1.206,2.098,1.445,0.571,1.037,0.965,�k�k��,3.7,��
2017/01/01,12:40,1.107,1.838,1.205,2.096,1.446,0.571,1.037,0.966,�k�k��,3.8,��
2017/01/01,12:50,1.108,1.840,1.207,2.095,1.448,0.570,1.039,0.966,�k�k��,3.0,��
2017/01/01,13:00,1.109,1.839,1.205,2.099,1.448,0.571,1.038,0.966,�k�k��,3.5,��
2017/01/01,13:10,1.106,1.839,1.203,2.096,1.446,0.571,1.039,0.964,�k�k��,2.7,��
2017/01/01,13:20,1.111,1.838,1.208,2.098,1.447,0.570,1.037,0.964,�k�k��,2.3,��
2017/01/01,13:30,1.108,1.840,1.202,2.098,1.447,0.569,1.037,0.965,�k��,1.9,��
2017/01/01,13:40,1.111,1.841,1.203,2.097,1.445,0.570,1.038,0.964,���k��,3.2,��
2017/01/01,13:50,1.109,1.838,1.205,2.101,1.448,0.572,1.038,0.964,��,4.2,��
2017/01/01,14:00,1.111,1.843,1.206,2.097,1.447,0.572,1.039,0.964,��,7.2,��
2017/01/01,14:10,1.106,1.842,1.206,2.103,1.446,0.571,1.039,0.966,��,7.9,��
2017/01/01,14:20,1.111,1.840,1.207,2.099,1.445,0.571,1.040,0.968,��,9.4,��
2017/01/01,14:30,1.111,1.840,1.205,2.102,1.448,0.570,1.037,0.966,���k��,7.4,��
2017/01/01,14:40,1.108,1.840,1.206,2.100,1.446,0.570,1.039,0.966,��,6.3,��
2017/01/01,14:50,1.111,1.839,1.207,2.099,1.448,0.572,1.039,0.962,��,7.7,��
2017/01/01,15:00,1.110,1.840,1.208,2.100,1.446,0.570,1.037,0.964,���k��,6.4,��
2017/01/01,15:10,1.108,1.845,1.206,2.103,1.446,0.570,1.038,0.966,���k��,5.5,��
2017/01/01,15:20,1.108,1.844,1.207,2.097,1.446,0.570,1.038,0.964,��,7.6,��
2017/01/01,15:30,1.108,1.839,1.206,2.100,1.443,0.569,1.038,0.964,��,7.7,��
2017/01/01,15:40,1.106,1.841,1.205,2.099,1.442,0.570,1.039,0.964,��,5.5,��
2017/01/01,15:50,1.106,1.843,1.208,2.097,1.443,0.569,1.039,0.964,���쐼,4.9,��
2017/01/01,16:00,1.105,1.841,1.205,2.099,1.445,0.570,1.037,0.964,���쐼,7.1,��
2017/01/01,16:10,1.108,1.838,1.204,2.099,1.446,0.570,1.040,0.963,��,6.8,��
2017/01/01,16:20,1.108,1.841,1.202,2.098,1.448,0.570,1.040,0.964,���쐼,6.1,��
2017/01/01,16:30,1.105,1.842,1.205,2.098,1.447,0.571,1.041,0.963,���쐼,6.2,��
2017/01/01,16:40,1.106,1.839,1.205,2.099,1.448,0.571,1.039,0.963,���쐼,7.0,��
2017/01/01,16:50,1.103,1.838,1.205,2.098,1.446,0.571,1.041,0.964,��,7.2,��
2017/01/01,17:00,1.106,1.836,1.204,2.099,1.444,0.570,1.040,0.964,���쐼,8.3,��
2017/01/01,17:10,1.104,1.837,1.204,2.098,1.446,0.570,1.040,0.964,��,8.3,��
2017/01/01,17:20,1.105,1.839,1.204,2.099,1.447,0.571,1.039,0.964,��,6.0,��
2017/01/01,17:30,1.109,1.837,1.204,2.099,1.445,0.571,1.040,0.963,��,5.5,��
2017/01/01,17:40,1.104,1.840,1.202,2.095,1.448,0.570,1.039,0.963,��,4.7,��
2017/01/01,17:50,1.107,1.839,1.204,2.096,1.446,0.572,1.039,0.964,��,3.8,��
2017/01/01,18:00,1.106,1.838,1.203,2.099,1.445,0.571,1.039,0.963,���쐼,4.2,��
2017/01/01,18:10,1.102,1.837,1.201,2.095,1.444,0.571,1.038,0.962,���쐼,5.0,��
2017/01/01,18:20,1.102,1.839,1.205,2.094,1.445,0.569,1.039,0.963,���쐼,5.9,��
2017/01/01,18:30,1.105,1.840,1.203,2.095,1.445,0.569,1.040,0.965,���쐼,7.4,��
2017/01/01,18:40,1.106,1.838,1.204,2.099,1.446,0.570,1.040,0.964,��,7.2,��
2017/01/01,18:50,1.105,1.839,1.204,2.098,1.448,0.571,1.040,0.962,���쐼,5.1,��
2017/01/01,19:00,1.105,1.840,1.202,2.099,1.447,0.571,1.041,0.964,���쐼,4.5,��
2017/01/01,19:10,1.104,1.840,1.206,2.098,1.448,0.569,1.039,0.965,�쐼,4.8,��
2017/01/01,19:20,1.104,1.838,1.204,2.096,1.444,0.569,1.041,0.964,�쐼,4.5,��
2017/01/01,19:30,1.103,1.838,1.205,2.098,1.444,0.569,1.040,0.964,��쐼,3.4,��
2017/01/01,19:40,1.105,1.836,1.205,2.094,1.444,0.572,1.039,0.964,�쐼,3.9,��
2017/01/01,19:50,1.106,1.837,1.202,2.097,1.444,0.571,1.037,0.963,�쐼,4.8,��
2017/01/01,20:00,1.105,1.837,1.203,2.094,1.445,0.570,1.039,0.963,�쐼,6.1,��
2017/01/01,20:10,1.103,1.838,1.204,2.094,1.447,0.571,1.039,0.964,�쐼,4.8,��
2017/01/01,20:20,1.107,1.839,1.202,2.098,1.447,0.570,1.038,0.964,��쐼,3.9,��
2017/01/01,20:30,1.107,1.841,1.205,2.097,1.445,0.570,1.039,0.963,�쐼,3.6,��
2017/01/01,20:40,1.104,1.835,1.202,2.100,1.447,0.571,1.041,0.964,���쐼,4.1,��
2017/01/01,20:50,1.106,1.840,1.205,2.100,1.446,0.569,1.038,0.962,�쐼,3.2,��
2017/01/01,21:00,1.105,1.838,1.207,2.097,1.445,0.571,1.039,0.962,�쐼,3.4,��
2017/01/01,21:10,1.107,1.836,1.205,2.097,1.444,0.570,1.041,0.963,�쐼,4.5,��
2017/01/01,21:20,1.105,1.839,1.203,2.098,1.444,0.571,1.039,0.963,���쐼,6.0,��
2017/01/01,21:30,1.107,1.839,1.203,2.098,1.448,0.571,1.040,0.963,�쐼,6.2,��
2017/01/01,21:40,1.105,1.839,1.204,2.098,1.446,0.569,1.040,0.964,�쐼,7.1,��
2017/01/01,21:50,1.107,1.838,1.206,2.098,1.450,0.569,1.040,0.963,�쐼,6.0,��
2017/01/01,22:00,1.106,1.840,1.204,2.099,1.447,0.570,1.040,0.963,�쐼,5.5,��
2017/01/01,22:10,1.106,1.839,1.205,2.096,1.445,0.572,1.039,0.962,�쐼,5.2,��
2017/01/01,22:20,1.104,1.836,1.203,2.098,1.445,0.571,1.038,0.963,�쐼,4.9,��
2017/01/01,22:30,1.108,1.839,1.204,2.101,1.446,0.567,1.041,0.964,�쐼,4.8,��
2017/01/01,22:40,1.107,1.840,1.204,2.099,1.446,0.570,1.038,0.964,�쐼,4.5,��
2017/01/01,22:50,1.108,1.840,1.202,2.097,1.446,0.570,1.039,0.963,���쐼,5.5,��
2017/01/01,23:00,1.107,1.840,1.202,2.097,1.447,0.572,1.040,0.964,�쐼,4.9,��
2017/01/01,23:10,1.108,1.837,1.205,2.097,1.442,0.571,1.040,0.963,�쐼,5.1,��
2017/01/01,23:20,1.109,1.836,1.202,2.098,1.447,0.569,1.041,0.965,�쐼,4.6,��
2017/01/01,23:30,1.107,1.839,1.204,2.098,1.446,0.570,1.039,0.964,�쐼,5.3,��
2017/01/01,23:40,1.107,1.839,1.205,2.096,1.444,0.569,1.039,0.965,�쐼,5.5,��
2017/01/01,23:50,1.107,1.838,1.204,2.099,1.448,0.569,1.039,0.963,�쐼,5.2,��
